Torna al catalogo

ONEWEB-0041

AttivoComunicazioniPO
NORAD 45148·PAYLOAD·🇬🇧 United Kingdom

Lanciato Feb 6, 2020 da Baikonur Cosmodrome

Loading…

Prossimi Passaggi (prossime 24 ore)

TLE

AggiornatoSource: Space-Track

Epoca: Sep 14, 2026, 05:28 UTC

1 45148U 20008T   26257.22801220  .00000069  00000-0  88595-4 0  9995
2 45148  87.9423 345.5742 0016821 345.9755  14.0925 13.48612330330056

Traccia ONEWEB-0041 in tempo reale con AllMySat

Download on the App Store